Regional Weather Roundup
Issued by NWS Lake Charles, LA

Home | Current Version | Previous Version | Text Only | Print | Product List | Glossary On
Versions: 1 2 3 4 5 6 7 8 9 10 11 12 13 14 15 16 17 18 19 20 21 22 23 24 25 26 27 28 29 30 31 32 33 34 35 36 37 38 39 40 41 42 43 44 45 46 47 48 49 50
000
ASUS44 KLCH 260710
RWRLCH
RWRLCH
REGIONAL WEATHER ROUNDUP
NATIONAL WEATHER SERVICE LAKE CHARLES LA
200 AM CDT SAT JUL 26 2014

Note: "fair" indicates few or no clouds below 12,000 feet with no
significant weather and/or obstructions to visibility.


ACROSS SOUTHEAST TEXAS

CITY           SKY/WX    TMP DP  RH WIND       PRES   REMARKS
BEAUMONT       CLEAR     79  76  90 SW5       30.00F
BEAUMONT CITY    N/A     77  75  94 S5        30.00F
ORANGE         SUNNY     78  78 100 CALM      30.02F
JASPER         CLEAR     74  72  93 CALM      30.02F
$$

ACROSS CENTRAL LOUISIANA

CITY           SKY/WX    TMP DP  RH WIND       PRES   REMARKS
LEESVILLE      PTCLDY    79  75  87 VRB3      30.01F
FULLERTON        N/A     79  75  87 CALM      29.99S
ALEXANDRIA INT CLEAR     78  75  90 SW6       29.98F
ESLER FIELD    CLEAR     78  75  90 CALM      29.99F
DERIDDER         N/A     78  75  91 CALM      30.02F
OAKDALE          N/A     75  74  95 CALM      30.00F FOG
OPELOUSAS        N/A     77  76  96 CALM      30.01S
$$

ACROSS SOUTHWEST AND SOUTH CENTRAL LOUISIANA

CITY           SKY/WX    TMP DP  RH WIND       PRES   REMARKS
SULPHUR        SUNNY     80  78  92 SW3       30.01S
LAKE CHARLES   CLEAR     80  76  87 CALM      30.00F
CHENNAULT INT  CLEAR     81  75  83 CALM      30.01F
CAMERON PHI    MOSUNNY   84  75  74 SW10      30.01F
DEQUINCY         N/A     76  75  96 CALM      30.00F
JENNINGS         N/A     78  76  92 CALM      30.01F
LAFAYETTE      CLEAR     78  75  90 S5        30.01F
NEW IBERIA     CLEAR     78  75  90 SW3       30.02F
ABBEVILLE        N/A     77  75  93 CALM      30.01F
PATTERSON      PTCLDY    77  75  94 CALM      30.06S
SALT POINT       N/A     86  77  74 VRB6      30.01F
$$

SELECTED SITES ACROSS THE REGION

CITY           SKY/WX    TMP DP  RH WIND       PRES   REMARKS
HOUSTON BUSH   PTCLDY    80  75  84 S3        30.01S
HOUSTON HOBBY  PTCLDY    79  75  87 CALM      30.00S
GALVESTON      PTCLDY    84  77  79 S13       30.01F
COLLEGE STAT   CLEAR     79  73  82 S6        29.99F
CONROE         CLEAR     78  74  87 S3        30.01F
HUNTSVILLE     CLEAR     80  73  79 S8        30.01S
LUFKIN         CLEAR     79  74  84 CALM      30.00S
SHREVEPORT     PTCLDY    79  73  82 SW6       29.97F
MONROE         CLEAR     74  72  93 CALM      29.99F FOG
NATCHEZ MS     PTCLDY    75  73  94 S5        30.01F
BATON ROUGE    MOCLDY    79  74  84 SW6       30.01F
N.O. INTL ARPT MOCLDY    79  75  87 SW6       30.01F
SLIDELL        PTCLDY    78  75  90 CALM      30.01F
$$

MARINE REPORTS

STATION/POSITION TIME  TEMP    WIND        PRES    VSBY  WAVE
                       AIR SEA DIR/SP/G                  HT/PER
                 (UTC) (F)     (DEG/KT/KT) (MB)    (MI)  (FT/S)
BUOY 30 S HIGH I NOT AVBL
SEA RIM ST PARK  0700   83     210/ 10/ 13 1016.4F
PORT ARTHUR      0700      87  210/  6/  9 1016.0F
SABINE PASS N    0700   82 87  210/  6/  9 1016.2F
TEXAS POINT      0700   84 88  210/ 13/ 15 1016.2F
CALCASIEU PASS   0700   85 88  230/ 11/ 15 1017.1F
LK CHARLES BEACH 0700   81 86              1016.8F
MARSH ISLAND     0600   86     240/  7/ 12   N/A
FRESH WATER LOCK 0700   83 88  210/  7/ 10 1016.4F
AMERADA PASS     0700   82 83  220/  2/  6 1016.5F
$$


USA.gov is the U.S. government's official web portal to all federal, state and local government web resources and services.